Content
SEND FEEDBACK

Daily
Averages
Monthly
Summary
United States of America

PYGA BEACH, GUAM


Home > North America > United States > Guam
Elevation: 20 feet     Latitude: 13 17N     Longitude: 144 39E

WEATHER
 
SELECT A DAY
Number of Records: 342,273;   Date Range: 1/1/95 - 8/30/14
 
SHARE

PRINT THIS DATA

[ ← Previous Day ]
WEATHER ALMANAC - FEBRUARY 20, 2014
[ Next Day → ]
[ °C ]   °F
Weather ElementAverageHighLow
Temperature78.3 °F81.5 °F (10:58 am)73.4 °F (2:54 am)
Dewpoint72.8 °F77 °F (11:43 am) (7:00 pm)
Humidity86.3 %100 % (1:06 am)78 % (12:57 am)
Barometer29.83 in29.90 in (9:42 am)29.77 in (2:58 pm)
Wind Speed9.2 mph16.1 mph (2:13 am)
Wind Gust24.2 mph (2:17 am)
Weather ElementAverage
Visibility9.7 mi
Wind DirectionNE (49.3 °)

Weather ElementTotal
Precipitation0.15 in
Cooling Degree Days12.5 (Base 65)
Growing Degree Days27.5 (Base 50)
Averaged from 73 records on February 20, 2014
WEATHER CONDITIONS BREAKOUT
WIND DIRECTION BREAKOUT
WEATHER BY HOUR - FEBRUARY 20, 2014
[ °C ]   °F
Local TimeTemperatureDewpointHumidityBarometerVisibilityWind DirectionWind SpeedGust SpeedPrecipitationEventsConditions
12:28 AM75.2 °F69.8 °F83 %29.86 in10.0 miNNE (20°)8.1 mphMostly Cloudy
12:57 AM77.0 °F69.8 °F78 %29.86 in10.0 miNNE (20°)9.2 mphLight Drizzle
12:58 AM77.0 °F69.8 °F78 %29.83 in10.0 miNNE (20°)10.4 mphLight Drizzle
1:06 AM75.2 °F75.2 °F100 %29.85 in10.0 miNNE (20°)10.4 mphMostly Cloudy
1:11 AM75.2 °F69.8 °F83 %29.85 in10.0 miNNE (20°)8.1 mphMostly Cloudy
1:36 AM77.0 °F69.8 °F78 %29.85 in10.0 miNorth (360°)8.1 mphMostly Cloudy
1:41 AM77.0 °F69.8 °F78 %29.85 in10.0 miNorth (10°)6.9 mphMostly Cloudy
1:44 AM77.0 °F69.8 °F78 %29.85 in8.0 miNNE (30°)9.2 mphRainLight Rain
1:49 AM75.2 °F69.8 °F83 %29.85 in5.0 miNorth (10°)10.4 mphRainHeavy Rain
1:54 AM75.2 °F69.8 °F83 %29.85 in4.0 miNorth (10°)9.2 mphRainHeavy Rain
1:58 AM75.2 °F69.8 °F83 %29.82 in4.0 miNorth (10°)9.2 mph0.05 inRainHeavy Rain
2:13 AM75.2 °F0.0 °F29.84 in9.0 miNNE (20°)16.1 mph21.9 mphRainLight Rain
2:17 AM75.2 °F69.8 °F83 %29.84 in10.0 miNNE (20°)16.1 mph24.2 mphOvercast
2:24 AM75.2 °F69.8 °F83 %29.84 in10.0 miNNE (30°)13.8 mph24.2 mphRainLight Rain
2:54 AM73.4 °F69.8 °F88 %29.83 in10.0 miNNE (20°)12.7 mphRainLight Rain
2:57 AM73.4 °F69.8 °F88 %29.83 in10.0 miNNE (20°)12.7 mphOvercast
2:58 AM73.4 °F69.8 °F88 %29.81 in10.0 miNNE (20°)11.5 mph0.10 inOvercast
3:03 AM73.4 °F69.8 °F88 %29.83 in10.0 miNorth (10°)10.4 mphOvercast
3:13 AM73.4 °F69.8 °F88 %29.83 in10.0 miNorth (360°)10.4 mphOvercast
3:58 AM73.4 °F69.8 °F88 %29.78 in10.0 miNNW (340°)5.8 mph0.00 inPartly Cloudy
4:58 AM73.4 °F69.8 °F88 %29.79 in10.0 miNNE (20°)4.6 mphClear
5:58 AM74.7 °F74.3 °F99 %29.81 in10.0 miNNE (20°)5.8 mphScattered Clouds
6:58 AM75.0 °F75.0 °F100 %29.82 in10.0 miNE (40°)5.8 mphPartly Cloudy
7:43 AM75.2 °F71.6 °F89 %29.87 in10.0 miNE (40°)8.1 mphMostly Cloudy
7:58 AM77.0 °F71.6 °F83 %29.86 in10.0 miNE (50°)8.1 mphScattered Clouds
8:48 AM78.8 °F73.4 °F83 %29.89 in10.0 miNNE (30°)8.1 mphMostly Cloudy
8:58 AM79.5 °F76.6 °F91 %29.86 in10.0 miNE (40°)10.4 mphMostly Cloudy
9:22 AM78.8 °F75.2 °F89 %29.89 in10.0 miNE (40°)9.2 mphScattered Clouds
9:42 AM80.6 °F75.2 °F84 %29.90 in10.0 miNE (50°)10.4 mphMostly Cloudy
9:58 AM80.8 °F76.1 °F86 %29.87 in10.0 miNE (40°)9.2 mphMostly Cloudy
10:26 AM80.6 °F75.2 °F84 %29.90 in10.0 miNNE (30°)10.4 mphMostly Cloudy
10:36 AM80.6 °F75.2 °F84 %29.89 in10.0 miNE (40°)9.2 mphScattered Clouds
10:41 AM80.6 °F75.2 °F84 %29.89 in10.0 miNE (50°)10.4 mphMostly Cloudy
10:51 AM80.6 °F75.2 °F84 %29.89 in10.0 miENE (60°)9.2 mphMostly Cloudy
10:58 AM81.5 °F75.6 °F82 %29.86 in10.0 miENE (60°)10.4 mphMostly Cloudy
11:13 AM80.6 °F75.2 °F84 %29.88 in10.0 miNE (40°)11.5 mphMostly Cloudy
11:43 AM80.6 °F77.0 °F89 %29.86 in10.0 miNE (40°)12.7 mphMostly Cloudy
11:58 AM80.4 °F75.6 °F85 %29.83 in10.0 miNE (40°)11.5 mphMostly Cloudy
12:33 PM80.6 °F73.4 °F79 %29.84 in10.0 miNE (40°)9.2 mphMostly Cloudy
12:38 PM80.6 °F75.2 °F84 %29.84 in10.0 miNNE (30°)10.4 mphMostly Cloudy
12:43 PM80.6 °F75.2 °F84 %29.84 in10.0 miNE (50°)10.4 mphMostly Cloudy
12:48 PM80.6 °F75.2 °F84 %29.83 in10.0 miNE (40°)9.2 mphMostly Cloudy
12:53 PM80.6 °F75.2 °F84 %29.83 in10.0 miNE (40°)6.9 mphMostly Cloudy
12:58 PM80.8 °F75.9 °F85 %29.81 in10.0 miNE (40°)10.4 mphScattered Clouds
1:08 PM80.6 °F75.2 °F84 %29.83 in10.0 miNNE (30°)10.4 mphMostly Cloudy
1:18 PM80.6 °F75.2 °F84 %29.83 in10.0 miNNE (20°)10.4 mphMostly Cloudy
1:23 PM80.6 °F75.2 °F84 %29.82 in10.0 miNE (40°)10.4 mphMostly Cloudy
1:28 PM80.6 °F75.2 °F84 %29.82 in10.0 miNNE (30°)10.4 mphMostly Cloudy
1:33 PM80.6 °F75.2 °F84 %29.82 in10.0 miNE (40°)9.2 mphScattered Clouds
1:38 PM80.6 °F75.2 °F84 %29.82 in10.0 miNE (40°)10.4 mphMostly Cloudy
1:48 PM80.6 °F77.0 °F89 %29.82 in10.0 miNNE (20°)11.5 mphMostly Cloudy
1:53 PM80.6 °F75.2 °F84 %29.82 in10.0 miNNE (30°)9.2 mphMostly Cloudy
1:58 PM81.1 °F75.6 °F83 %29.78 in10.0 miNE (50°)9.2 mphMostly Cloudy
2:03 PM80.6 °F75.2 °F84 %29.81 in10.0 miNE (50°)10.4 mphScattered Clouds
2:13 PM80.6 °F75.2 °F84 %29.81 in10.0 miNNE (30°)8.1 mphScattered Clouds
2:18 PM80.6 °F75.2 °F84 %29.81 in10.0 miNNE (20°)11.5 mphMostly Cloudy
2:23 PM80.6 °F75.2 °F84 %29.80 in10.0 miNE (50°)9.2 mphScattered Clouds
2:28 PM80.6 °F75.2 °F84 %29.80 in10.0 miNNE (30°)9.2 mphMostly Cloudy
2:33 PM80.6 °F77.0 °F89 %29.80 in10.0 miNNE (20°)9.2 mphMostly Cloudy
2:43 PM80.6 °F77.0 °F89 %29.80 in10.0 miNNE (30°)8.1 mphScattered Clouds
2:53 PM80.6 °F75.2 °F84 %29.80 in10.0 miNE (40°)9.2 mphMostly Cloudy
2:58 PM81.0 °F75.9 °F85 %29.77 in10.0 miNE (40°)9.2 mphScattered Clouds
3:03 PM80.6 °F75.2 °F84 %29.80 in10.0 miNE (40°)8.1 mphMostly Cloudy
3:08 PM80.6 °F75.2 °F84 %29.80 in10.0 miNNE (30°)6.9 mphMostly Cloudy
3:55 PM80.1 °F75.6 °F86 %29.77 in10.0 miENE (60°)11.5 mph0.00 inScattered Clouds
4:58 PM80.1 °F75.9 °F87 %29.78 in10.0 miENE (60°)6.9 mphScattered Clouds
5:58 PM78.3 °F76.1 °F93 %29.81 in10.0 miENE (70°)5.8 mphPartly Cloudy
6:58 PM77.0 °F75.6 °F95 %29.81 in10.0 miENE (60°)5.8 mphClear
7:58 PM77.2 °F75.7 °F95 %29.83 in10.0 miENE (60°)5.8 mphClear
8:58 PM77.2 °F75.9 °F96 %29.84 in10.0 miNE (50°)5.8 mphClear
9:58 PM76.1 °F75.4 °F98 %29.84 in10.0 miENE (60°)5.8 mphClear
10:58 PM76.3 °F75.9 °F99 %29.84 in10.0 miENE (70°)3.5 mphClear
11:58 PM76.1 °F75.9 °F99 %29.83 in10.0 miEast (90°)3.5 mphClear
Hourly data recorded from PGUA, located miles away from Pyga Beach, Guam







STORIES FROM OUR PARTNERS